Location: ????????
(55.0808°N, 38.5463°E)
Time: 03:25:44
(UTC+00:00)

Nimbus 3 Rocket - Pass Details

Date: 24 September 2024
Orbit: 1072 x 1131 km, 99.9° (Epoch: 03 October)

Event Time Altitude Azimuth Distance (km) Brightness Sun altitude
Rises 20:54:32 0° 19° (NNE) 3,908 9.0 -35.6°
Reaches altitude 10° 20:57:16 10° 26° (NNE) 2,940 8.1 -35.7°
Enters shadow 21:01:46 37° 60° (ENE) 1,632 6.2 -35.7°
